TimeEDT,TemperatureF,Dew PointF,Humidity,Sea Level PressureIn,VisibilityMPH,Wind Direction,Wind SpeedMPH,Gust SpeedMPH,PrecipitationIn,Events,Conditions,WindDirDegrees,DateUTC
12:34 AM,53.6,51.8,94,29.60,2.0,Calm,Calm,-,N/A,,Overcast,0,2012-10-16 04:34:00
12:52 AM,53.1,51.1,93,29.60,5.0,Calm,Calm,-,N/A,,Overcast,0,2012-10-16 04:52:00
1:18 AM,53.6,51.8,94,29.59,1.8,Calm,Calm,-,N/A,,Overcast,0,2012-10-16 05:18:00
1:31 AM,53.6,51.8,94,29.59,3.0,Calm,Calm,-,N/A,,Overcast,0,2012-10-16 05:31:00
1:52 AM,53.1,51.1,93,29.60,6.0,Calm,Calm,-,N/A,,Overcast,0,2012-10-16 05:52:00
2:43 AM,53.6,51.8,94,29.57,8.0,Calm,Calm,-,N/A,,Overcast,0,2012-10-16 06:43:00
2:52 AM,52.0,51.1,97,29.58,5.0,Calm,Calm,-,N/A,,Overcast,0,2012-10-16 06:52:00
3:04 AM,51.8,50.0,94,29.57,3.0,Calm,Calm,-,N/A,,Overcast,0,2012-10-16 07:04:00
3:28 AM,51.8,50.0,94,29.57,5.0,Calm,Calm,-,N/A,,Overcast,0,2012-10-16 07:28:00
4:38 AM,51.8,50.0,94,29.56,5.0,Calm,Calm,-,N/A,,Overcast,0,2012-10-16 08:38:00
4:52 AM,52.0,50.0,93,29.57,7.0,West,4.6,-,0.00,Rain,Light Rain,280,2012-10-16 08:52:00
5:12 AM,51.8,46.4,82,29.55,10.0,West,6.9,-,0.00,,Scattered Clouds,270,2012-10-16 09:12:00
5:52 AM,51.1,45.0,80,29.57,10.0,Variable,4.6,-,0.00,,Scattered Clouds,0,2012-10-16 09:52:00
6:52 AM,48.9,43.0,80,29.58,10.0,West,5.8,-,N/A,,Overcast,280,2012-10-16 10:52:00
7:30 AM,46.4,41.0,81,29.59,10.0,Variable,6.9,-,N/A,,Overcast,0,2012-10-16 11:30:00
8:52 AM,46.0,37.0,71,29.62,10.0,Variable,3.5,-,N/A,,Overcast,0,2012-10-16 12:52:00
9:28 AM,44.6,35.6,71,29.62,10.0,Calm,Calm,-,N/A,,Overcast,0,2012-10-16 13:28:00
9:52 AM,45.0,36.0,71,29.63,10.0,Variable,4.6,-,N/A,,Overcast,0,2012-10-16 13:52:00
10:24 AM,44.6,35.6,71,29.63,10.0,Variable,4.6,-,N/A,,Overcast,0,2012-10-16 14:24:00
10:48 AM,44.6,33.8,66,29.63,10.0,West,8.1,19.6,N/A,,Overcast,280,2012-10-16 14:48:00
10:52 AM,45.0,35.1,68,29.65,10.0,WNW,8.1,-,N/A,,Overcast,290,2012-10-16 14:52:00
11:00 AM,44.6,35.6,71,29.63,10.0,WNW,10.4,19.6,N/A,,Overcast,290,2012-10-16 15:00:00
11:52 AM,43.0,35.1,74,29.66,10.0,WNW,9.2,-,N/A,,Overcast,290,2012-10-16 15:52:00
12:05 PM,44.6,35.6,71,29.64,10.0,West,10.4,21.9,N/A,,Overcast,270,2012-10-16 16:05:00
12:52 PM,42.1,34.0,73,29.67,10.0,NW,11.5,20.7,0.00,,Overcast,320,2012-10-16 16:52:00
1:52 PM,42.1,32.0,67,29.67,10.0,WNW,13.8,24.2,N/A,,Overcast,290,2012-10-16 17:52:00
2:52 PM,42.1,32.0,67,29.69,10.0,WNW,11.5,21.9,N/A,,Overcast,300,2012-10-16 18:52:00
3:52 PM,42.1,32.0,67,29.70,10.0,NW,9.2,23.0,N/A,,Overcast,310,2012-10-16 19:52:00
5:52 PM,43.0,30.9,62,29.75,10.0,WNW,6.9,-,N/A,,Overcast,300,2012-10-16 21:52:00
6:06 PM,42.8,30.2,61,29.73,10.0,Variable,5.8,-,N/A,,Overcast,0,2012-10-16 22:06:00
6:52 PM,43.0,30.9,62,29.78,10.0,WNW,4.6,-,N/A,,Overcast,300,2012-10-16 22:52:00
7:52 PM,43.0,30.9,62,29.79,10.0,WNW,8.1,-,N/A,,Overcast,300,2012-10-16 23:52:00
8:52 PM,42.1,30.0,62,29.81,10.0,West,10.4,18.4,N/A,,Overcast,280,2012-10-17 00:52:00
9:52 PM,41.0,30.0,65,29.84,10.0,Variable,4.6,-,N/A,,Partly Cloudy,0,2012-10-17 01:52:00
10:52 PM,41.0,28.9,62,29.86,10.0,Variable,6.9,-,N/A,,Mostly Cloudy,0,2012-10-17 02:52:00
11:52 PM,39.9,28.9,65,29.88,10.0,WNW,3.5,-,N/A,,Overcast,300,2012-10-17 03:52:00